Date String (YYYY-MM-DD hh:mm:ss) UTC,Instrument flags,Ambient pressure (hPa),Sample flow (lpm),Bypass flow (lpm),Sample temperature (°C),Ambient temperature (°C),ASC tube jacket temperature (°C),LED temperature (°C),Box temperature (°C),Sample RH (%),Span deviation,Mass concentration (μg/m³),Mass concentration (μg/m³),Mass concentration (μg/m³)
DateTimeUTC,F1_M11,P_M11,Q1_M11,Q2_M11,T1_M11,T2_M11,T3_M11,T4_M11,T5_M11,U1_M11,ZSPAN_M11,X0_M11,X2_M11,X1_M11
2023-05-29 23:00:00,,0826.8,5.00,0.00,29.2,27.5,00.0,37.4,30.9,17.9,0000.0,0010.45,0004.72,0003.74
2023-05-29 23:01:00,,0826.8,5.00,0.00,29.2,27.7,00.0,37.5,31.0,17.7,0000.0,0010.64,0004.75,0003.74
2023-05-29 23:02:00,,0826.9,5.00,0.00,29.3,27.9,00.0,37.5,31.1,19.7,0000.0,0010.66,0004.74,0003.73
2023-05-29 23:03:00,,0826.9,5.00,0.00,29.3,28.1,00.0,37.5,31.1,20.8,0000.0,0010.17,0004.71,0003.73
2023-05-29 23:04:00,,0826.9,5.00,0.00,29.3,28.2,00.0,37.5,31.2,21.2,0000.0,0010.05,0004.67,0003.71
2023-05-29 23:05:00,,0826.9,5.00,0.00,29.4,28.3,00.0,37.6,31.2,22.0,0000.0,0010.01,0004.68,0003.71
2023-05-29 23:06:00,,0826.9,4.99,0.00,29.4,27.1,00.0,37.5,31.1,21.7,0000.0,0009.72,0004.66,0003.71
2023-05-29 23:07:00,,0826.8,5.00,0.00,29.4,26.1,00.0,37.5,30.9,20.0,0000.0,0009.34,0004.61,0003.71
2023-05-29 23:08:00,,0826.7,5.01,0.00,29.3,26.2,00.0,37.5,30.8,20.1,0000.0,0009.41,0004.62,0003.71
2023-05-29 23:09:00,,0826.8,5.02,0.00,29.3,26.4,00.0,37.5,30.8,20.3,0000.0,0009.36,0004.62,0003.72
2023-05-29 23:10:00,,0826.8,4.99,0.00,29.3,26.7,00.0,37.5,30.9,19.8,0000.0,0009.07,0004.59,0003.73
2023-05-29 23:11:00,,0826.8,5.00,0.00,29.3,27.0,00.0,37.5,30.9,20.1,0000.0,0008.83,0004.58,0003.74
2023-05-29 23:12:00,,0826.8,5.00,0.00,29.3,27.3,00.0,37.6,31.0,20.2,0000.0,0008.68,0004.57,0003.74
2023-05-29 23:13:00,,0826.8,5.01,0.00,29.3,27.6,00.0,37.6,31.1,19.9,0000.0,0009.34,0004.60,0003.76
2023-05-29 23:14:00,,0826.7,5.01,0.00,29.4,27.8,00.0,37.6,31.1,19.9,0000.0,0009.33,0004.61,0003.76
2023-05-29 23:15:00,,0826.8,4.99,0.00,29.4,28.0,00.0,37.6,31.2,20.4,0000.0,0009.58,0004.67,0003.78
2023-05-29 23:16:00,,0826.8,4.99,0.00,29.4,27.8,00.0,37.6,31.2,20.7,0000.0,0010.10,0004.70,0003.79
2023-05-29 23:17:00,,0826.8,5.00,0.00,29.4,26.4,00.0,37.6,31.0,19.4,0000.0,0010.32,0004.73,0003.80
2023-05-29 23:18:00,,0826.7,5.00,0.00,29.4,26.0,00.0,37.5,30.9,19.4,0000.0,0010.79,0004.77,0003.81
2023-05-29 23:19:00,,0826.8,5.02,0.00,29.3,26.2,00.0,37.5,30.8,19.7,0000.0,0011.30,0004.79,0003.81
2023-05-29 23:20:00,,0826.8,5.00,0.00,29.3,26.4,00.0,37.5,30.8,19.5,0000.0,0012.25,0004.79,0003.81
2023-05-29 23:21:00,,0826.8,5.00,0.00,29.3,26.8,00.0,37.5,30.9,19.7,0000.0,0012.46,0004.84,0003.81
2023-05-29 23:22:00,,0826.8,5.00,0.00,29.3,27.1,00.0,37.6,31.0,19.5,0000.0,0012.43,0004.86,0003.80
2023-05-29 23:23:00,,0826.8,5.00,0.00,29.3,27.4,00.0,37.6,31.0,18.8,0000.0,0013.10,0004.87,0003.82
2023-05-29 23:24:00,,0826.8,5.00,0.00,29.3,27.6,00.0,37.6,31.1,18.4,0000.0,0012.47,0004.85,0003.82
2023-05-29 23:25:00,,0826.8,5.00,0.00,29.4,27.8,00.0,37.6,31.2,18.6,0000.0,0012.39,0004.87,0003.83
2023-05-29 23:26:00,,0826.7,5.00,0.00,29.4,28.0,00.0,37.7,31.2,18.9,0000.0,0012.41,0004.86,0003.83
2023-05-29 23:27:00,,0826.6,4.99,0.00,29.5,28.0,00.0,37.7,31.3,18.3,0000.0,0012.15,0004.86,0003.84
2023-05-29 23:28:00,,0826.6,4.98,0.00,29.4,26.6,00.0,37.6,31.1,19.1,0000.0,0012.17,0004.85,0003.84
2023-05-29 23:29:00,,0826.6,5.01,0.00,29.4,25.2,00.0,37.5,30.8,19.3,0000.0,0011.91,0004.86,0003.85
2023-05-29 23:30:00,,0826.6,5.01,0.00,29.3,25.1,00.0,37.5,30.7,20.1,0000.0,0011.76,0004.83,0003.84
2023-05-29 23:31:00,,0826.6,5.00,0.00,29.2,25.4,00.0,37.5,30.7,19.2,0000.0,0011.29,0004.82,0003.85
2023-05-29 23:32:00,,0826.6,5.00,0.00,29.2,25.8,00.0,37.5,30.7,19.2,0000.0,0011.33,0004.82,0003.86
2023-05-29 23:33:00,,0826.6,5.00,0.00,29.2,26.2,00.0,37.5,30.7,18.7,0000.0,0011.60,0004.84,0003.86
2023-05-29 23:34:00,,0826.7,5.00,0.00,29.2,26.6,00.0,37.5,30.8,19.5,0000.0,0011.38,0004.91,0003.86
2023-05-29 23:35:00,,0826.8,5.00,0.00,29.2,27.0,00.0,37.5,30.9,19.6,0000.0,0012.05,0004.94,0003.86
2023-05-29 23:36:00,,0826.8,5.00,0.00,29.2,27.3,00.0,37.5,30.9,18.9,0000.0,0012.37,0004.93,0003.85
2023-05-29 23:37:00,,0826.8,5.00,0.00,29.2,27.5,00.0,37.5,31.0,18.9,0000.0,0012.40,0004.89,0003.83
2023-05-29 23:38:00,,0826.8,5.00,0.00,29.3,27.8,00.0,37.6,31.1,18.9,0000.0,0012.88,0004.88,0003.82
2023-05-29 23:39:00,,0826.8,5.00,0.00,29.3,27.9,00.0,37.6,31.1,19.0,0000.0,0012.67,0004.86,0003.82
2023-05-29 23:40:00,,0826.8,5.00,0.00,29.4,28.1,00.0,37.6,31.2,19.6,0000.0,0012.50,0004.83,0003.83
2023-05-29 23:41:00,,0826.7,4.99,0.00,29.4,28.0,00.0,37.6,31.2,20.0,0000.0,0012.74,0004.85,0003.84
2023-05-29 23:42:00,,0826.8,5.00,0.00,29.4,26.6,00.0,37.6,31.0,19.2,0000.0,0012.81,0004.87,0003.84
2023-05-29 23:43:00,,0826.6,5.01,0.00,29.3,26.0,00.0,37.5,30.9,18.8,0000.0,0012.94,0004.88,0003.85
2023-05-29 23:44:00,,0826.6,5.01,0.00,29.3,26.2,00.0,37.5,30.8,19.1,0000.0,0013.17,0004.85,0003.85
2023-05-29 23:45:00,,0826.6,5.00,0.00,29.3,26.4,00.0,37.5,30.8,19.0,0000.0,0012.70,0004.77,0003.84
2023-05-29 23:46:00,,0826.6,5.00,0.00,29.3,26.7,00.0,37.5,30.9,19.2,0000.0,0012.42,0004.76,0003.83
2023-05-29 23:47:00,,0826.6,5.01,0.00,29.3,27.0,00.0,37.6,30.9,18.4,0000.0,0012.31,0004.76,0003.83
2023-05-29 23:48:00,,0826.6,4.99,0.00,29.3,27.3,00.0,37.6,31.0,18.2,0000.0,0012.40,0004.73,0003.81
2023-05-29 23:49:00,,0826.6,4.99,0.00,29.3,27.6,00.0,37.6,31.1,18.3,0000.0,0011.66,0004.68,0003.80
2023-05-29 23:50:00,,0826.6,5.00,0.00,29.4,27.8,00.0,37.6,31.1,18.7,0000.0,0011.75,0004.68,0003.80
2023-05-29 23:51:00,,0826.7,5.00,0.00,29.4,28.0,00.0,37.6,31.2,18.7,0000.0,0013.23,0004.72,0003.78
2023-05-29 23:52:00,,0826.7,5.00,0.00,29.4,28.1,00.0,37.7,31.2,18.1,0000.0,0013.85,0004.71,0003.75
2023-05-29 23:53:00,,0826.8,4.98,0.00,29.4,26.8,00.0,37.6,31.0,17.9,0000.0,0013.19,0004.73,0003.73
2023-05-29 23:54:00,,0826.7,5.01,0.00,29.4,25.2,00.0,37.5,30.8,18.2,0000.0,0012.79,0004.69,0003.72
2023-05-29 23:55:00,,0826.8,5.00,0.00,29.3,25.1,00.0,37.4,30.7,19.1,0000.0,0012.50,0004.67,0003.71
2023-05-29 23:56:00,,0826.7,5.01,0.00,29.2,25.4,00.0,37.5,30.7,19.0,0000.0,0012.53,0004.65,0003.71
2023-05-29 23:57:00,,0826.8,5.00,0.00,29.2,25.8,00.0,37.5,30.7,19.3,0000.0,0012.44,0004.61,0003.70
2023-05-29 23:58:00,,0826.7,5.00,0.00,29.2,26.2,00.0,37.5,30.7,19.8,0000.0,0011.81,0004.59,0003.69
2023-05-29 23:59:00,,0826.8,5.00,0.00,29.2,26.6,00.0,37.5,30.8,19.4,0000.0,0012.06,0004.60,0003.70
